Time,TemperatureF,DewpointF,PressureIn,WindDirection,WindDirectionDegrees,WindSpeedMPH,WindSpeedGustMPH,Humidity,HourlyPrecipIn,Conditions,Clouds,dailyrainin,SolarRadiationWatts/m^2,SoftwareType,DateUTC
2013-01-19 00:03:00,54.0,50.0,-100.00,North,352,7.0,-999.0,88,0.00,,,-99.99,0.000000,,2013-01-19 05:03:00,
2013-01-19 00:12:00,54.0,50.0,-100.00,North,354,7.0,-999.0,88,0.00,,,-99.99,0.000000,,2013-01-19 05:12:00,
2013-01-19 00:23:00,54.0,50.0,-100.00,North,354,7.0,-999.0,88,0.00,,,-99.99,0.000000,,2013-01-19 05:23:00,
2013-01-19 00:33:00,53.0,50.0,-100.00,North,352,7.0,-999.0,89,0.00,,,-99.99,0.000000,,2013-01-19 05:33:00,
2013-01-19 00:43:00,53.0,50.0,-100.00,North,352,8.0,-999.0,89,0.00,,,-99.99,0.000000,,2013-01-19 05:43:00,
2013-01-19 00:53:00,53.0,50.0,-100.00,North,352,8.0,-999.0,89,0.00,,,-99.99,0.000000,,2013-01-19 05:53:00,
2013-01-19 01:02:00,53.0,50.0,-100.00,NNW,348,8.0,-999.0,89,0.00,,,-99.99,0.000000,,2013-01-19 06:02:00,
2013-01-19 01:12:00,53.0,50.0,-100.00,North,354,8.0,-999.0,90,0.00,,,-99.99,0.000000,,2013-01-19 06:12:00,
2013-01-19 01:22:00,53.0,50.0,-100.00,North,354,8.0,-999.0,90,0.00,,,-99.99,0.000000,,2013-01-19 06:22:00,
2013-01-19 01:32:00,53.0,50.0,-100.00,North,352,8.0,-999.0,90,0.00,,,-99.99,0.000000,,2013-01-19 06:32:00,
2013-01-19 01:43:00,53.0,50.0,-100.00,North,353,8.0,-999.0,91,0.00,,,-99.99,0.000000,,2013-01-19 06:43:00,
2013-01-19 01:53:00,53.0,50.0,-100.00,North,353,8.0,-999.0,91,0.00,,,-99.99,0.000000,,2013-01-19 06:53:00,
2013-01-19 02:02:00,53.0,50.0,-100.00,North,357,8.0,-999.0,91,0.00,,,-99.99,0.000000,,2013-01-19 07:02:00,
2013-01-19 02:12:00,53.0,50.0,-100.00,North,359,8.0,-999.0,91,0.00,,,-99.99,0.000000,,2013-01-19 07:12:00,
2013-01-19 02:22:00,53.0,50.0,-100.00,North,359,8.0,-999.0,91,0.00,,,-99.99,0.000000,,2013-01-19 07:22:00,
2013-01-19 02:33:00,53.0,50.0,-100.00,North,357,7.0,-999.0,92,0.00,,,-99.99,0.000000,,2013-01-19 07:33:00,
2013-01-19 02:43:00,53.0,51.0,-100.00,North,351,7.0,-999.0,92,0.00,,,-99.99,0.000000,,2013-01-19 07:43:00,
2013-01-19 02:53:00,53.0,51.0,-100.00,North,351,7.0,-999.0,92,0.00,,,-99.99,0.000000,,2013-01-19 07:53:00,
2013-01-19 03:02:00,53.0,51.0,-100.00,North,355,7.0,-999.0,93,0.00,,,-99.99,0.000000,,2013-01-19 08:02:00,
2013-01-19 03:12:00,53.0,51.0,-100.00,North,355,9.0,-999.0,92,0.00,,,-99.99,0.000000,,2013-01-19 08:12:00,
2013-01-19 03:22:00,53.0,51.0,-100.00,North,355,9.0,-999.0,92,0.00,,,-99.99,0.000000,,2013-01-19 08:22:00,
2013-01-19 03:32:00,53.0,51.0,-100.00,North,359,9.0,-999.0,92,0.00,,,-99.99,0.000000,,2013-01-19 08:32:00,
2013-01-19 03:43:00,53.0,51.0,-100.00,North,1,8.0,-999.0,92,0.00,,,-99.99,0.000000,,2013-01-19 08:43:00,
2013-01-19 03:53:00,53.0,51.0,-100.00,North,1,8.0,-999.0,92,0.00,,,-99.99,0.000000,,2013-01-19 08:53:00,
2013-01-19 04:02:00,53.0,51.0,-100.00,North,355,7.0,-999.0,92,0.00,,,-99.99,0.000000,,2013-01-19 09:02:00,
2013-01-19 04:12:00,52.0,50.0,-100.00,North,351,7.0,-999.0,92,0.00,,,-99.99,0.000000,,2013-01-19 09:12:00,
2013-01-19 04:23:00,52.0,50.0,-100.00,North,351,7.0,-999.0,92,0.00,,,-99.99,0.000000,,2013-01-19 09:23:00,
2013-01-19 04:33:00,52.0,50.0,-100.00,North,349,8.0,-999.0,92,0.00,,,-99.99,0.000000,,2013-01-19 09:33:00,
2013-01-19 04:42:00,52.0,50.0,-100.00,North,350,7.0,-999.0,93,0.00,,,-99.99,0.000000,,2013-01-19 09:42:00,
2013-01-19 04:53:00,52.0,50.0,-100.00,North,350,7.0,-999.0,93,0.00,,,-99.99,0.000000,,2013-01-19 09:53:00,
2013-01-19 05:02:00,53.0,51.0,-100.00,North,356,6.0,-999.0,93,0.00,,,-99.99,0.000000,,2013-01-19 10:02:00,
2013-01-19 05:12:00,53.0,51.0,-100.00,North,357,7.0,-999.0,93,0.00,,,-99.99,0.000000,,2013-01-19 10:12:00,
2013-01-19 05:22:00,53.0,51.0,-100.00,North,357,7.0,-999.0,93,0.00,,,-99.99,0.000000,,2013-01-19 10:22:00,
2013-01-19 05:32:00,53.0,51.0,-100.00,North,1,8.0,-999.0,93,0.00,,,-99.99,0.000000,,2013-01-19 10:32:00,
2013-01-19 05:43:00,53.0,51.0,-100.00,North,1,8.0,-999.0,93,0.00,,,-99.99,0.000000,,2013-01-19 10:43:00,
2013-01-19 05:53:00,53.0,51.0,-100.00,North,1,8.0,-999.0,93,0.00,,,-99.99,0.000000,,2013-01-19 10:53:00,
2013-01-19 06:03:00,53.0,52.0,-100.00,North,2,7.0,-999.0,93,0.00,,,-99.99,0.000000,,2013-01-19 11:03:00,
2013-01-19 06:12:00,54.0,52.0,-100.00,North,1,8.0,-999.0,93,0.00,,,-99.99,0.000000,,2013-01-19 11:12:00,
2013-01-19 07:48:00,54.0,52.0,-100.00,North,0,7.0,-999.0,94,0.00,,,-99.99,0.100000,,2013-01-19 12:48:00,
2013-01-19 07:53:00,54.0,53.0,-100.00,North,359,7.0,-999.0,94,0.00,,,-99.99,9.800000,,2013-01-19 12:53:00,
2013-01-19 08:03:00,54.0,53.0,-100.00,North,359,7.0,-999.0,94,0.00,,,-99.99,9.800000,,2013-01-19 13:03:00,
2013-01-19 08:12:00,55.0,53.0,-100.00,North,0,8.0,-999.0,94,0.00,,,-99.99,62.599998,,2013-01-19 13:12:00,
2013-01-19 08:22:00,55.0,53.0,-100.00,North,0,8.0,-999.0,94,0.00,,,-99.99,62.599998,,2013-01-19 13:22:00,
2013-01-19 08:33:00,55.0,53.0,-100.00,North,4,10.0,-999.0,94,0.00,,,-99.99,123.900002,,2013-01-19 13:33:00,
2013-01-19 08:43:00,56.0,54.0,-100.00,North,11,9.0,-999.0,92,0.00,,,-99.99,157.800003,,2013-01-19 13:43:00,
2013-01-19 08:53:00,56.0,54.0,-100.00,North,11,9.0,-999.0,92,0.00,,,-99.99,157.800003,,2013-01-19 13:53:00,
2013-01-19 09:03:00,56.0,54.0,-100.00,North,7,10.0,-999.0,91,0.00,,,-99.99,190.300003,,2013-01-19 14:03:00,
2013-01-19 09:12:00,57.0,54.0,-100.00,North,11,9.0,-999.0,89,0.00,,,-99.99,280.399994,,2013-01-19 14:12:00,
2013-01-19 09:23:00,57.0,54.0,-100.00,North,11,9.0,-999.0,89,0.00,,,-99.99,280.399994,,2013-01-19 14:23:00,
2013-01-19 09:34:00,58.0,54.0,-100.00,NNE,14,11.0,-999.0,86,0.00,,,-99.99,279.000000,,2013-01-19 14:34:00,
2013-01-19 09:43:00,58.0,54.0,-100.00,North,11,10.0,-999.0,87,0.00,,,-99.99,175.199997,,2013-01-19 14:43:00,
2013-01-19 09:53:00,58.0,54.0,-100.00,North,11,10.0,-999.0,87,0.00,,,-99.99,175.199997,,2013-01-19 14:53:00,
2013-01-19 10:03:00,58.0,54.0,-100.00,NNE,13,10.0,-999.0,85,0.00,,,-99.99,303.899994,,2013-01-19 15:03:00,
2013-01-19 10:13:00,61.0,55.0,-100.00,NNE,19,10.0,-999.0,81,0.00,,,-99.99,456.600006,,2013-01-19 15:13:00,
2013-01-19 10:23:00,61.0,55.0,-100.00,NNE,19,10.0,-999.0,81,0.00,,,-99.99,456.600006,,2013-01-19 15:23:00,
2013-01-19 10:33:00,62.0,55.0,-100.00,NNE,21,11.0,-999.0,78,0.00,,,-99.99,476.500000,,2013-01-19 15:33:00,
2013-01-19 10:43:00,63.0,56.0,-100.00,NNE,23,11.0,-999.0,75,0.00,,,-99.99,516.299988,,2013-01-19 15:43:00,
2013-01-19 10:53:00,63.0,56.0,-100.00,NNE,23,11.0,-999.0,75,0.00,,,-99.99,516.299988,,2013-01-19 15:53:00,
2013-01-19 11:03:00,64.0,56.0,-100.00,NNE,21,10.0,-999.0,73,0.00,,,-99.99,449.299988,,2013-01-19 16:03:00,
2013-01-19 11:13:00,66.0,57.0,-100.00,NNE,19,9.0,-999.0,71,0.00,,,-99.99,668.000000,,2013-01-19 16:13:00,
2013-01-19 11:23:00,66.0,57.0,-100.00,NNE,19,9.0,-999.0,71,0.00,,,-99.99,668.000000,,2013-01-19 16:23:00,
2013-01-19 11:33:00,67.0,57.0,-100.00,NNE,25,10.0,-999.0,69,0.00,,,-99.99,669.500000,,2013-01-19 16:33:00,
2013-01-19 11:43:00,67.0,57.0,-100.00,NNE,20,9.0,-999.0,68,0.00,,,-99.99,540.200012,,2013-01-19 16:43:00,
2013-01-19 11:54:00,67.0,57.0,-100.00,NNE,20,9.0,-999.0,68,0.00,,,-99.99,540.200012,,2013-01-19 16:54:00,
2013-01-19 12:03:00,68.0,57.0,-100.00,North,7,8.0,-999.0,68,0.00,,,-99.99,492.600006,,2013-01-19 17:03:00,
2013-01-19 12:21:00,69.0,57.0,-100.00,NNE,20,10.0,-999.0,66,0.00,,,-99.99,603.900024,,2013-01-19 17:21:00,
2013-01-19 12:29:00,69.0,57.0,-100.00,NNE,20,10.0,-999.0,66,0.00,,,-99.99,603.900024,,2013-01-19 17:29:00,
2013-01-19 12:35:00,70.0,58.0,-100.00,NNE,19,10.0,-999.0,65,0.00,,,-99.99,698.599976,,2013-01-19 17:35:00,
2013-01-19 12:48:00,71.0,58.0,-100.00,NNE,21,11.0,-999.0,63,0.00,,,-99.99,655.099976,,2013-01-19 17:48:00,
2013-01-19 12:55:00,71.0,58.0,-100.00,NNE,21,11.0,-999.0,63,0.00,,,-99.99,655.099976,,2013-01-19 17:55:00,
2013-01-19 13:12:00,71.0,58.0,-100.00,NNE,30,11.0,-999.0,63,0.00,,,-99.99,502.799988,,2013-01-19 18:12:00,
2013-01-19 13:27:00,71.0,58.0,-100.00,NE,37,11.0,-999.0,63,0.00,,,-99.99,488.399994,,2013-01-19 18:27:00,
2013-01-19 13:35:00,71.0,58.0,-100.00,NE,37,11.0,-999.0,63,0.00,,,-99.99,488.399994,,2013-01-19 18:35:00,
2013-01-19 13:45:00,72.0,58.0,-100.00,NE,38,10.0,-999.0,61,0.00,,,-99.99,641.299988,,2013-01-19 18:45:00,
2013-01-19 14:02:00,72.0,58.0,-100.00,NE,38,10.0,-999.0,61,0.00,,,-99.99,641.299988,,2013-01-19 19:02:00,
2013-01-19 14:09:00,73.0,58.0,-100.00,NNE,31,11.0,-999.0,60,0.00,,,-99.99,659.200012,,2013-01-19 19:09:00,
2013-01-19 14:30:00,72.0,58.0,-100.00,NE,39,11.0,-999.0,60,0.00,,,-99.99,450.100006,,2013-01-19 19:30:00,
2013-01-19 14:39:00,71.0,58.0,-100.00,NNE,31,12.0,-999.0,62,0.00,,,-99.99,230.300003,,2013-01-19 19:39:00,
2013-01-19 14:48:00,72.0,58.0,-100.00,NNE,33,10.0,-999.0,62,0.00,,,-99.99,388.200012,,2013-01-19 19:48:00,
2013-01-19 15:20:00,73.0,57.0,-100.00,NE,51,12.0,-999.0,59,0.00,,,-99.99,531.299988,,2013-01-19 20:20:00,
2013-01-19 15:25:00,73.0,57.0,-100.00,NE,51,12.0,-999.0,59,0.00,,,-99.99,531.299988,,2013-01-19 20:25:00,
2013-01-19 15:38:00,71.0,57.0,-100.00,ENE,58,10.0,-999.0,61,0.00,,,-99.99,212.100006,,2013-01-19 20:38:00,
2013-01-19 15:49:00,71.0,58.0,-100.00,NE,46,11.0,-999.0,61,0.00,,,-99.99,221.100006,,2013-01-19 20:49:00,
2013-01-19 15:59:00,71.0,58.0,-100.00,NE,46,11.0,-999.0,61,0.00,,,-99.99,221.100006,,2013-01-19 20:59:00,
2013-01-19 16:07:00,71.0,58.0,-100.00,NE,47,10.0,-999.0,63,0.00,,,-99.99,191.399994,,2013-01-19 21:07:00,
2013-01-19 16:15:00,71.0,57.0,-100.00,NE,52,11.0,-999.0,62,0.00,,,-99.99,158.399994,,2013-01-19 21:15:00,
2013-01-19 16:26:00,71.0,57.0,-100.00,NE,52,11.0,-999.0,62,0.00,,,-99.99,158.399994,,2013-01-19 21:26:00,
2013-01-19 16:44:00,71.0,58.0,-100.00,NNE,29,11.0,-999.0,63,0.00,,,-99.99,164.699997,,2013-01-19 21:44:00,
2013-01-19 16:52:00,70.0,57.0,-100.00,NNE,26,10.0,-999.0,64,0.00,,,-99.99,96.699997,,2013-01-19 21:52:00,
2013-01-19 17:00:00,70.0,57.0,-100.00,NNE,26,10.0,-999.0,64,0.00,,,-99.99,96.699997,,2013-01-19 22:00:00,
2013-01-19 17:14:00,69.0,58.0,-100.00,NNE,27,9.0,-999.0,65,0.00,,,-99.99,58.700001,,2013-01-19 22:14:00,
2013-01-19 17:27:00,69.0,58.0,-100.00,NE,38,9.0,-999.0,65,0.00,,,-99.99,62.900002,,2013-01-19 22:27:00,
2013-01-19 17:35:00,69.0,57.0,-100.00,NNE,32,9.0,-999.0,66,0.00,,,-99.99,62.700001,,2013-01-19 22:35:00,
2013-01-19 17:58:00,69.0,57.0,-100.00,NE,38,9.0,-999.0,67,0.00,,,-99.99,29.900000,,2013-01-19 22:58:00,
2013-01-19 18:13:00,68.0,57.0,-100.00,NNE,32,9.0,-999.0,68,0.00,,,-99.99,17.900000,,2013-01-19 23:13:00,
2013-01-19 18:25:00,67.0,58.0,-100.00,NNE,21,7.0,-999.0,71,0.00,,,-99.99,3.800000,,2013-01-19 23:25:00,
2013-01-19 18:34:00,66.0,57.0,-100.00,NNE,28,6.0,-999.0,73,0.00,,,-99.99,0.400000,,2013-01-19 23:34:00,
2013-01-19 18:47:00,66.0,57.0,-100.00,NNE,28,6.0,-999.0,73,0.00,,,-99.99,0.400000,,2013-01-19 23:47:00,
2013-01-19 19:07:00,65.0,57.0,-100.00,NNE,22,6.0,-999.0,75,0.00,,,-99.99,0.000000,,2013-01-20 00:07:00,
2013-01-19 19:16:00,65.0,58.0,-100.00,NNE,20,7.0,-999.0,78,0.00,,,-99.99,0.000000,,2013-01-20 00:16:00,
2013-01-19 19:26:00,64.0,58.0,-100.00,NNE,17,5.0,-999.0,80,0.00,,,-99.99,0.000000,,2013-01-20 00:26:00,
2013-01-19 19:35:00,63.0,58.0,-100.00,NNE,15,7.0,-999.0,82,0.00,,,-99.99,0.000000,,2013-01-20 00:35:00,
2013-01-19 19:47:00,63.0,58.0,-100.00,NNE,19,7.0,-999.0,84,0.00,,,-99.99,0.000000,,2013-01-20 00:47:00,
2013-01-19 19:58:00,63.0,58.0,-100.00,NNE,19,7.0,-999.0,84,0.00,,,-99.99,0.000000,,2013-01-20 00:58:00,
2013-01-19 20:04:00,62.0,58.0,-100.00,North,2,7.0,-999.0,86,0.00,,,-99.99,0.000000,,2013-01-20 01:04:00,
2013-01-19 20:21:00,61.0,58.0,-100.00,North,7,7.0,-999.0,88,0.00,,,-99.99,0.000000,,2013-01-20 01:21:00,
2013-01-19 20:37:00,60.0,58.0,-100.00,North,11,8.0,-999.0,90,0.00,,,-99.99,0.000000,,2013-01-20 01:37:00,
2013-01-19 21:04:00,60.0,58.0,-100.00,NNE,17,7.0,-999.0,91,0.00,,,-99.99,0.000000,,2013-01-20 02:04:00,
2013-01-19 21:15:00,60.0,58.0,-100.00,North,4,7.0,-999.0,93,0.00,,,-99.99,0.000000,,2013-01-20 02:15:00,
2013-01-19 21:26:00,60.0,58.0,-100.00,North,4,7.0,-999.0,93,0.00,,,-99.99,0.000000,,2013-01-20 02:26:00,
2013-01-19 21:35:00,60.0,58.0,-100.00,North,10,6.0,-999.0,93,0.00,,,-99.99,0.000000,,2013-01-20 02:35:00,
2013-01-19 21:45:00,59.0,58.0,-100.00,NNE,21,7.0,-999.0,94,0.00,,,-99.99,0.000000,,2013-01-20 02:45:00,
2013-01-19 21:59:00,59.0,58.0,-100.00,NNE,21,7.0,-999.0,94,0.00,,,-99.99,0.000000,,2013-01-20 02:59:00,
2013-01-19 22:08:00,59.0,58.0,-100.00,NNE,12,5.0,-999.0,94,0.00,,,-99.99,0.000000,,2013-01-20 03:08:00,
2013-01-19 22:15:00,59.0,58.0,-100.00,North,3,5.0,-999.0,94,0.00,,,-99.99,0.000000,,2013-01-20 03:15:00,
2013-01-19 22:38:00,59.0,58.0,-100.00,North,5,5.0,-999.0,95,0.00,,,-99.99,0.000000,,2013-01-20 03:38:00,
2013-01-19 22:58:00,59.0,58.0,-100.00,North,5,5.0,-999.0,95,0.00,,,-99.99,0.000000,,2013-01-20 03:58:00,
2013-01-19 23:05:00,59.0,58.0,-100.00,North,3,5.0,-999.0,95,0.00,,,-99.99,0.000000,,2013-01-20 04:05:00,
2013-01-19 23:15:00,59.0,58.0,-100.00,North,3,5.0,-999.0,95,0.00,,,-99.99,0.000000,,2013-01-20 04:15:00,
2013-01-19 23:26:00,59.0,58.0,-100.00,North,3,5.0,-999.0,95,0.00,,,-99.99,0.000000,,2013-01-20 04:26:00,
2013-01-19 23:35:00,59.0,58.0,-100.00,North,357,7.0,-999.0,95,0.00,,,-99.99,0.000000,,2013-01-20 04:35:00,
2013-01-19 23:45:00,59.0,58.0,-100.00,North,357,7.0,-999.0,95,0.00,,,-99.99,0.000000,,2013-01-20 04:45:00,
2013-01-19 23:58:00,59.0,58.0,-100.00,North,356,6.0,-999.0,95,0.00,,,-99.99,0.000000,,2013-01-20 04:58:00,